Weather History for Columbus, GA

Change the Weather History Date:

Tuesday, February 5, 2013

  Actual Average Record
Temperature  
Mean Temperature 58 °F 49 °F  
Max Temperature 73 °F 60 °F 81 °F (1957)
Min Temperature 42 °F 38 °F 10 °F (1996)
Degree Days  
Heating Degree Days 7 16  
Month to date heating degree days 80 81  
Since 1 July heating degree days 1055 1464  
Cooling Degree Days 0 0  
Month to date cooling degree days 0 0  
Year to date cooling degree days 25 1  
Growing Degree Days 6 (Base 50)    
Moisture  
Dew Point 43 °F    
Average Humidity 61    
Maximum Humidity 83    
Minimum Humidity 38    
Precipitation  
Precipitation 0.00 in 0.15 in 2.43 in (1985)
Month to date precipitation 0.02 0.75  
Year to date precipitation 3.24 4.60  
Snow  
Snow 0.00 in 0.00 in 0.00 in (2002)
Month to date snowfall 0.0 0.0  
Since 1 July snowfall 0.0 0.3  
Snow Depth -    
Sea Level Pressure  
Sea Level Pressure 30.02 in    
Wind  
Wind Speed 2 mph (WSW)    
Max Wind Speed 15 mph    
Max Gust Speed 20 mph    
Visibility 10 miles    
Events      
T = Trace of Precipitation, MM = Missing Value Source: NWS Daily Summary

Daily Weather History Graph

Daily Weather History Graph

Search for Another Location

Airport:

Trip Planner

Search our weather history database for the weather conditions in past years. The results will help you decide how hot, cold, wet, or windy it might be!

Date:

Astronomy

Feb. 05, 2013 Rise Set
Actual Time 7:31 AM EST 6:16 PM EST
Civil Twilight 7:05 AM EST 6:42 PM EST
Nautical Twilight 6:36 AM EST 7:11 PM EST
Astronomical Twilight 6:07 AM EST 7:40 PM EST
Moon 3:06 AM EST (2/5) 1:39 PM EST (2/5)
Length of Visible Light 11h 36m
Length of Day
10h 45m
Waning Crescent, 27% of the Moon is Illuminated
Feb 5
Waning Crescent
Feb 10
New
Feb 17
First Quarter
Feb 25
Full
Mar 4
Last Quarter

Hourly Weather History & Observations

Time (EST) Temp. Dew Point Humidity Pressure Visibility Wind Dir Wind Speed Gust Speed Precip Events Conditions
12:51 AM 46.0 °F 33.1 °F 61% 30.02 in 10.0 mi Calm Calm - N/A   Clear
1:51 AM 44.1 °F 36.0 °F 73% 30.01 in 10.0 mi Calm Calm - N/A   Clear
2:51 AM 44.1 °F 36.0 °F 73% 30.00 in 10.0 mi Calm Calm - N/A   Clear
3:51 AM 43.0 °F 36.0 °F 76% 29.99 in 10.0 mi Calm Calm - N/A   Clear
4:51 AM 44.1 °F 36.0 °F 73% 30.00 in 10.0 mi Calm Calm - N/A   Overcast
5:51 AM 42.1 °F 37.0 °F 82% 30.00 in 10.0 mi Calm Calm - N/A   Overcast
6:51 AM 42.1 °F 36.0 °F 79% 30.02 in 10.0 mi Calm Calm - N/A   Partly Cloudy
7:51 AM 43.0 °F 36.0 °F 76% 30.04 in 10.0 mi Calm Calm - N/A   Mostly Cloudy
8:51 AM 46.9 °F 36.0 °F 66% 30.06 in 10.0 mi Calm Calm - N/A   Scattered Clouds
9:51 AM 53.1 °F 41.0 °F 64% 30.06 in 8.0 mi SW 4.6 mph - N/A   Clear
10:51 AM 59.0 °F 44.1 °F 58% 30.06 in 10.0 mi West 4.6 mph - N/A   Clear
11:51 AM 61.0 °F 43.0 °F 52% 30.06 in 10.0 mi WSW 3.5 mph - N/A   Overcast
12:51 PM 64.0 °F 45.0 °F 50% 30.04 in 10.0 mi Calm Calm - N/A   Mostly Cloudy
1:51 PM 68.0 °F 45.0 °F 43% 30.00 in 10.0 mi Calm Calm - N/A   Mostly Cloudy
2:51 PM 71.1 °F 45.0 °F 39% 29.98 in 10.0 mi NW 6.9 mph - N/A   Mostly Cloudy
3:51 PM 71.1 °F 45.0 °F 39% 29.97 in 10.0 mi Variable 3.5 mph - N/A   Mostly Cloudy
4:51 PM 70.0 °F 48.9 °F 47% 29.97 in 10.0 mi SW 13.8 mph - N/A   Scattered Clouds
5:51 PM 66.9 °F 48.9 °F 52% 29.97 in 10.0 mi SW 8.1 mph - N/A   Clear
6:51 PM 63.0 °F 48.9 °F 60% 29.99 in 10.0 mi SW 6.9 mph - N/A   Clear
7:51 PM 62.1 °F 51.1 °F 67% 30.01 in 10.0 mi West 4.6 mph - N/A   Clear
8:51 PM 60.1 °F 51.1 °F 72% 30.01 in 10.0 mi Calm Calm - N/A   Clear
9:51 PM 57.0 °F 51.1 °F 81% 30.04 in 10.0 mi Calm Calm - N/A   Clear
10:51 PM 55.9 °F 50.0 °F 80% 30.05 in 10.0 mi Calm Calm - N/A   Clear
11:51 PM 53.1 °F 48.9 °F 86% 30.05 in 10.0 mi Calm Calm - N/A   Mostly Cloudy